GPS BIIRM-8 (PRN 05)

Last updated on Sat Oct 18 2025 00:03:22 GMT+0000 (Coordinated Universal Time)

1 35752U 09043A 25290.05530785 -.00000091 00000+0 00000+0 0 9998 2 35752 56.0541 37.0177 0053625 82.2052 93.7009 2.00569010118483
UTC large
Height (km)
Speed (km/s)
/
Latitude / Longitude
Inclination (degrees)
Orbital Period (minutes)
Azimuth
Elevation
Range (km)
Doppler Factor

Next 0 passes for location: London (51.5072 / 0.1276)

Sorry there are no passes over London.